This is the latest recevied weather packets stored in our database for station/object IT9ITI-10. If no packets are shown the sender has not sent any weather packets the latest 10 day(s).
| Time | Temp. | Humidity | Pressure | Rain* | Wind** | Luminosity | Snow |
|---|---|---|---|---|---|---|---|
| 1788260629 | 35.56° C | 27% | 938.8 hPa | - | - | - | - |
| 1788257029 | 35° C | 31% | 939.1 hPa | - | - | - | - |
| 1788253429 | 35° C | 34% | 939.3 hPa | - | - | - | - |
| 1788249829 | 34.44° C | 35% | 938.9 hPa | - | - | - | - |
| 1788246229 | 34.44° C | 35% | 938.5 hPa | - | - | - | - |
| 1788242629 | 34.44° C | 35% | 938.1 hPa | - | - | - | - |
| 1788239029 | 34.44° C | 34% | 938.1 hPa | - | - | - | - |
| 1788235429 | 34.44° C | 34% | 937.7 hPa | - | - | - | - |
| 1788231829 | 34.44° C | 32% | 937.5 hPa | - | - | - | - |
| 1788228229 | 34.44° C | 32% | 937.6 hPa | - | - | - | - |
| 1788224629 | 34.44° C | 33% | 937.9 hPa | - | - | - | - |
| 1788221029 | 35° C | 36% | 938.3 hPa | - | - | - | - |
| 1788217429 | 35° C | 33% | 938.7 hPa | - | - | - | - |
| 1788213829 | 35° C | 36% | 938 hPa | - | - | - | - |
| 1788210229 | 35.56° C | 36% | 938.1 hPa | - | - | - | - |
| 1788206629 | 35° C | 37% | 938.1 hPa | - | - | - | - |
| 1788203029 | 35° C | 37% | 937.9 hPa | - | - | - | - |
| 1788199429 | 35.56° C | 36% | 937.4 hPa | - | - | - | - |
| 1788195829 | 35.56° C | 35% | 937.3 hPa | - | - | - | - |
| 1788192229 | 35.56° C | 36% | 937 hPa | - | - | - | - |
| 1788188629 | 35° C | 35% | 937 hPa | - | - | - | - |
| 1788185029 | 35.56° C | 35% | 937 hPa | - | - | - | - |
| 1788181429 | 35.56° C | 35% | 937.1 hPa | - | - | - | - |
| 1788177847 | 35.56° C | 34% | 937.5 hPa | - | - | - | - |
| 1788174229 | 35.56° C | 35% | 938.1 hPa | - | - | - | - |
* Rain since midnight (hover to see other rain measurements)
** Current wind speed in m/s (hover to see current wind gust speed)